SITRO-AIS 5 (KATYS)

Last updated on Tue Jul 01 2025 00:03:44 GMT+0000 (Coordinated Universal Time)

1 57176U 23091L 25181.55637252 .00005831 00000+0 27296-3 0 9998 2 57176 97.5567 238.5430 0012468 254.0142 105.9719 15.20062678110765
UTC large
Height (km)
Speed (km/s)
/
Latitude / Longitude
Inclination (degrees)
Orbital Period (minutes)
Azimuth
Elevation
Range (km)
Doppler Factor

Next 0 passes for location: London (51.5072 / 0.1276)

Sorry there are no passes over London.